Regional Weather Roundup
Issued by NWS

Home | Current Version | Previous Version | Text Only | Print | Product List | Glossary Off
Versions: 1 2 3 4 5 6 7 8 9 10 11 12 13 14 15 16 17 18 19 20 21 22 23 24 25 26 27 28 29 30 31 32 33 34 35 36 37 38 39 40 41 42 43 44 45 46 47 48 49 50

000
ASUS43 KLSX 281107
RWRMO

WEATHER SUMMARY FOR MISSOURI
NATIONAL WEATHER SERVICE SPRINGFIELD MO
600 AM CDT THU APR 28 2016

NOTE: "FAIR" INDICATES FEW OR NO CLOUDS BELOW 12,000 FEET WITH NO
       SIGNIFICANT WEATHER AND/OR OBSTRUCTIONS TO VISIBILITY.
       CURRENT SKY AND/OR WEATHER CONDITIONS ARE NOT AVAILABLE FOR
       CHILLICOTHE AND FARMINGTON.

MOZ001>031-035>038-043-044-053-054-281200-
...NORTHERN AND WESTERN MISSOURI...

CITY           SKY/WX    TMP DP  RH WIND       PRES   REMARKS
KANSAS CTY INT CLOUDY    46  40  79 W9        29.79R
KANSAS C DTWN  CLOUDY    48  39  71 W13G20    29.79R
LEE`S SUMMIT   CLEAR     45  38  76 W9        29.79R
ST JOSEPH      CLOUDY    47  44  90 W12       29.77R
CHILLICOTHE      N/A     50  32  50 SW7       29.76R
KIRKSVILLE     CLEAR     48  42  80 SW7       29.75R

$$
MOZ066>068-077>081-088>096-101>105-281200-
...SOUTHWEST MISSOURI...

CITY           SKY/WX    TMP DP  RH WIND       PRES   REMARKS
SPRINGFIELD    CLEAR     51  43  74 W10       29.86R
JOPLIN         CLEAR     49  42  77 W6        29.88R

$$
MOZ032>034-039>042-045>050-055>058-069>072-281200-
...CENTRAL MISSOURI...

CITY           SKY/WX    TMP DP  RH WIND       PRES   REMARKS
COLUMBIA       CLEAR     50  48  93 W6        29.78R
JEFFERSON CITY CLEAR     53  48  83 W6        29.78R
ROLLA          CLEAR     48  46  93 SW8       29.78R
SEDALIA        CLEAR     50  43  77 SW10      29.80R
WHITEMAN AFB   PTCLDY    46  43  86 W9        29.78R
WARRENSBURG    CLEAR     45  37  76 W10       29.80R
OSAGE BEACH    CLEAR     50  39  66 SW5       29.81R

$$
MOZ051-052-059>065-281200-
...EAST CENTRAL MISSOURI...

CITY           SKY/WX    TMP DP  RH WIND       PRES   REMARKS
ST LOUIS INTL  CLEAR     56  51  84 CALM      29.78R
SPIRIT OF STL  CLEAR     52  51  97 CALM      29.77R
ST CHARLES     CLEAR     53  52  96 CALM      29.77R

$$
MOZ072>076-082>087-097>100-106>115-281200-
...SOUTH CENTRAL AND SOUTHEAST MISSOURI...

CITY           SKY/WX    TMP DP  RH WIND       PRES   REMARKS
CAPE GIRARDEAU CLEAR     57  55  93 SW5       29.80R
FARMINGTON     CLEAR     53  51  93 CALM      29.80R
POPLAR BLUFF   CLEAR     56  54  93 SW3       29.81R
WEST PLAINS    CLEAR     50  46  86 MISG      29.84R

$$



USA.gov is the U.S. government's official web portal to all federal, state and local government web resources and services.